Theta_e
321 321 321 321 321 319 318 316 311 306 308 312 311 308 305 303 302 303 303 302 301 301 302 304 305 306 306 304 303 301 299 298 296 295 294 295 295 295
322 321 321 321 320 319 318 318 315 313 308 312 312 305 302 300 300 298 298 298 297 297 297 299 300 300 299 298 297 295 294 293 292 292 292 291 291 292
322 321 321 321 320 319 319 317 316 315 311 309 307 301 298 297 296 296 295 293 293 293 293 293 294 295 294 293 292 291 290 289 288 288 288 288 289 289
321 321 320 321 319 318 317 316 316 315 313 306 303 300 297 295 295 293 292 291 290 291 291 291 291 293 291 290 288 287 286 286 285 285 285 285 286 287
320 320 320 319 317 317 316 315 315 315 314 308 303 297 294 293 291 291 289 288 289 290 288 288 290 290 289 288 287 285 285 284 284 283 283 283 284 284
319 320 320 319 315 316 316 314 312 312 311 309 302 294 293 293 290 287 285 287 286 287 287 285 286 288 288 287 286 285 284 283 283 283 282 282 282 283
316 318 317 315 308 313 317 312 311 309 309 306 298 291 289 287 288 287 285 283 282 284 283 283 283 282 284 286 285 284 283 282 282 282 282 282 282 282
308 306 312 306 302 300 299 298 301 308 307 302 295 293 288 288 288 287 282 280 279 282 283 281 282 281 282 283 285 284 282 281 281 281 282 282 282 282
304 302 297 297 296 292 289 288 287 287 286 299 293 292 288 289 289 286 283 283 279 280 283 279 281 280 283 283 284 283 282 281 281 281 282 282 282 283
302 301 297 292 291 290 287 285 284 285 284 285 286 285 287 289 290 288 283 278 278 279 280 277 280 279 281 282 284 283 283 282 281 282 282 282 283 283
291 294 293 289 289 291 286 283 283 283 286 287 286 286 286 285 284 282 279 278 275 276 278 279 279 278 280 280 282 284 284 283 283 283 283 283 283 283
286 286 287 287 287 287 287 284 280 278 279 280 280 281 282 282 283 283 282 277 275 274 277 277 277 278 277 279 279 280 280 284 283 284 283 284 284 281
285 284 285 285 286 285 284 282 279 278 278 278 278 278 278 278 278 279 282 280 275 274 278 279 277 277 277 276 278 279 279 279 279 280 283 283 284 283
282 282 283 284 283 282 281 280 279 278 277 276 275 275 275 275 276 276 277 277 278 278 279 280 276 276 275 274 274 277 278 278 279 279 279 281 282 283
282 283 283 282 281 280 280 279 278 277 276 274 273 273 274 275 276 276 276 277 277 278 278 278 276 276 276 275 275 276 276 278 278 278 277 278 277 278
280 278 278 278 278 278 277 277 277 276 274 273 273 274 276 276 275 276 275 275 274 274 277 278 277 277 276 276 276 275 276 274 276 276 277 277 279 279
277 276 276 275 275 274 275 275 275 275 274 274 274 274 275 275 276 277 277 277 274 274 275 277 278 278 277 276 273 274 275 275 275 276 276 276 278 278
276 274 273 274 273 274 273 273 274 275 275 275 275 275 274 274 275 276 276 274 273 273 273 274 273 272 276 277 278 274 273 273 274 276 277 274 275 277
274 274 273 273 274 274 274 274 273 275 276 275 274 274 274 274 273 272 271 271 271 271 273 273 271 269 268 261 273 277 272 273 272 272 274 273 273 276
275 274 273 273 273 273 273 273 273 273 273 272 271 270 270 271 270 270 269 266 268 271 271 271 270 270 267 265 265 270 278 272 270 269 272 273 275 279
274 273 273 273 273 273 272 271 271 270 270 270 269 269 267 270 267 267 267 266 267 271 270 270 271 272 272 270 263 266 270 278 277 270 269 268 270 272
273 273 273 272 271 271 271 271 270 270 270 269 266 266 266 268 266 266 265 266 267 267 269 270 273 273 271 271 268 263 268 269 275 279 281 278 273 270
271 272 271 271 271 270 271 269 269 268 268 267 267 266 264 264 266 266 266 267 267 266 268 267 269 270 270 270 267 265 265 266 271 271 270 277 279 280
Wind_Speed
15 17 11 10 8 7 10 10 10 8 9 4 4 6 7 6 7 8 9 15 17 17 15 15 15 17 17 18 18 17 16 14 14 12 11 11 10 11
13 17 15 10 6 5 9 10 10 9 8 3 3 5 7 7 9 9 12 17 18 18 16 16 17 19 18 18 17 16 15 14 12 11 11 9 9 9
12 17 18 15 11 4 4 10 10 9 9 4 4 8 6 10 8 7 7 8 10 17 16 16 14 18 18 17 16 16 14 12 10 9 9 9 9 9
16 17 19 15 11 6 5 9 12 8 9 13 7 3 4 7 9 10 5 6 7 13 16 14 16 17 16 16 15 15 14 11 9 9 9 9 9 10
12 15 16 16 14 8 4 5 6 7 11 10 6 3 4 5 5 7 6 7 6 15 13 14 14 16 15 14 14 13 12 10 8 8 7 8 9 9
8 14 16 21 19 13 6 7 5 9 10 10 6 5 4 4 3 6 5 4 7 7 8 7 9 12 13 13 11 10 8 7 7 6 6 6 6 8
6 10 11 13 15 14 10 6 6 6 8 8 6 4 4 5 9 6 4 6 3 2 5 5 4 3 4 6 7 6 5 4 4 3 4 6 6 7
5 4 9 16 13 15 13 10 6 6 8 6 4 5 4 3 6 9 8 5 4 3 4 4 3 4 5 6 10 9 5 3 2 3 5 5 6 7
5 5 5 7 14 12 18 20 19 18 10 2 6 5 6 10 10 10 7 4 3 4 5 3 2 2 4 6 11 10 8 3 2 2 4 4 4 6
5 6 8 7 9 14 12 14 13 12 8 5 7 4 5 4 6 5 9 11 8 5 2 4 1 3 1 4 13 9 7 4 3 2 1 2 4 6
6 6 6 8 12 19 14 15 13 13 19 24 25 24 21 16 12 11 8 11 4 2 2 2 3 3 2 2 4 9 8 6 5 4 3 1 2 4
7 8 12 12 13 12 13 15 13 9 10 12 11 16 17 17 15 8 7 8 8 3 2 4 6 3 1 2 2 1 1 3 4 4 3 2 5 1
7 7 6 17 18 18 15 10 12 14 13 11 10 9 9 10 8 9 7 6 4 4 4 2 2 2 1 2 2 1 1 2 2 2 6 6 8 7
10 9 11 21 21 23 18 26 24 15 10 10 9 9 8 8 8 9 10 9 8 9 6 4 4 2 2 1 1 2 2 3 2 2 3 6 9 11
10 19 25 27 28 23 26 23 13 9 9 10 9 8 8 7 8 9 10 11 11 9 6 6 5 5 3 2 1 1 1 2 2 1 3 3 3 3
19 11 13 15 16 14 13 12 9 9 10 10 9 7 7 6 6 5 6 6 7 4 4 4 3 3 2 2 2 1 2 1 3 2 2 3 3 3
16 11 8 10 11 10 10 9 10 9 10 9 9 8 7 6 5 2 2 2 5 3 2 1 2 4 3 2 2 3 1 1 2 2 2 4 3 3
11 11 10 10 9 9 10 9 8 9 8 8 7 7 7 6 5 4 5 5 6 4 3 3 3 3 2 4 6 2 2 1 2 3 4 2 4 4
11 9 10 10 9 8 8 8 8 7 7 7 7 6 6 6 6 5 4 4 3 3 4 3 3 2 2 1 3 2 1 2 2 3 2 2 4 8
9 9 9 8 8 8 8 8 7 6 6 6 5 4 5 6 6 6 4 4 3 4 4 1 2 2 3 4 2 4 10 2 2 2 3 2 5 15
9 9 8 8 8 8 8 7 8 7 6 6 5 6 5 6 5 4 4 5 4 3 4 2 1 4 2 3 3 3 4 10 7 3 3 2 3 3
8 8 8 8 8 8 7 7 7 7 7 7 5 5 4 5 4 4 4 4 3 1 3 2 5 4 2 1 2 3 3 4 10 9 9 4 2 3
8 8 7 7 7 6 6 6 7 6 6 6 5 4 4 4 4 4 4 3 3 3 2 3 3 3 2 1 1 2 3 4 2 5 4 11 14 14
Wind_Direction
200 197 194 189 213 197 184 177 176 164 187 190 112 78 97 97 94 93 97 99 103 100 102 107 109 110 109 112 109 107 101 96 88 79 67 55 46 39
200 191 199 190 207 206 185 178 175 176 165 132 100 115 106 92 96 99 104 99 94 99 103 106 108 112 112 110 106 104 99 91 79 74 68 59 51 40
194 191 194 192 202 174 236 175 176 168 159 91 93 120 91 114 105 97 97 107 102 105 109 112 115 115 118 114 110 103 96 87 85 73 62 57 47 38
209 199 196 181 175 159 228 156 165 157 140 137 137 124 102 121 126 116 120 98 107 115 119 122 126 122 121 116 109 103 94 89 82 72 60 42 34 27
203 193 179 179 177 176 187 91 156 148 145 143 132 114 106 142 127 100 115 113 117 129 121 118 120 124 124 120 119 112 101 90 82 67 50 39 24 18
197 204 192 186 170 177 171 162 184 148 142 145 136 123 120 130 127 143 141 147 143 138 126 117 119 129 132 127 130 124 106 93 82 70 54 32 15 16
203 193 168 166 170 172 169 164 165 139 145 145 139 122 144 154 187 162 128 136 101 142 131 125 128 110 123 132 140 140 136 105 81 74 36 22 14 11
127 125 162 146 143 132 117 98 83 161 155 139 141 165 172 141 141 161 139 155 187 210 135 127 135 163 173 184 185 177 154 144 84 46 22 19 11 358
120 107 67 108 108 103 87 78 59 51 40 114 154 182 159 179 158 157 162 139 123 131 122 106 168 190 154 174 177 172 175 165 162 7 26 11 350 350
126 135 125 110 113 116 96 79 69 55 45 62 86 92 76 111 129 129 125 106 89 80 29 111 96 99 196 162 181 185 191 199 227 321 22 333 17 352
46 64 100 106 127 126 112 106 99 90 76 83 84 82 82 91 114 117 130 127 105 120 37 101 156 165 144 164 193 204 225 203 231 271 280 70 19 352
62 60 90 118 122 136 131 132 113 114 105 86 75 69 67 70 64 78 130 123 121 122 203 107 172 140 123 169 194 156 89 163 324 294 314 91 343 338
96 86 83 105 109 102 96 102 116 116 101 94 87 78 71 65 60 63 72 103 103 80 150 127 120 88 93 123 95 46 30 339 317 351 34 3 339 336
108 102 102 103 103 101 97 111 109 105 103 98 91 86 84 77 68 74 79 80 77 93 104 97 107 127 112 62 106 344 335 357 71 57 1 343 337 332
104 109 107 103 103 100 109 105 99 97 101 97 96 88 86 97 96 88 86 91 95 107 107 111 113 126 112 115 120 238 323 92 55 39 352 334 313 318
97 90 97 94 89 95 94 86 88 94 104 104 101 97 98 100 97 100 107 105 93 84 79 87 98 122 131 127 174 288 28 49 349 345 308 289 291 289
111 99 91 90 95 90 85 83 92 95 101 107 112 114 112 111 109 120 98 88 99 101 67 24 45 52 54 203 85 77 61 41 327 319 326 309 292 297
85 92 93 89 91 99 98 95 89 100 103 107 111 116 120 117 110 89 91 86 98 103 93 55 21 32 41 47 63 65 26 321 294 310 316 308 295 306
86 91 94 97 98 93 96 103 103 97 108 104 111 114 108 94 88 81 79 86 73 67 81 85 60 71 79 6 322 294 188 255 274 295 265 244 269 294
79 86 86 92 95 96 98 103 94 85 84 83 82 82 76 92 85 78 70 78 59 78 91 61 92 126 146 186 231 271 304 215 208 259 287 271 256 269
87 86 88 90 85 88 84 82 89 87 83 81 79 85 81 95 84 79 80 74 82 75 89 69 299 240 198 85 15 302 298 320 336 219 244 260 273 291
78 82 82 78 80 88 87 88 90 88 83 80 74 78 75 87 92 88 85 89 71 64 73 18 5 353 25 58 292 270 295 315 316 319 321 308 218 285
85 88 89 93 91 83 93 89 89 85 85 84 85 83 83 85 83 82 83 79 76 71 46 25 2 360 343 345 303 296 311 294 289 316 292 293 302 292